SL-16 R/B, 27006

Orbit data source: Space-Track

SL-16 R/B, 27006 is space debris in SSO originally from a launch on Mon, 10 Dec 2001 UTC launched from the Tyuratam Missile And Space Complex (TTMTR). Debris objects in space refer to the collection of defunct objects orbiting the Earth. Examples of debris include non-operational satellites, rocket bodies, and fragments generated from explosions, collisions, or faulty payload assembly.

Loading next visibility...
SL-16 R/B details
Identifier
27006, 2001-056F
Orbit
SSO
Last TLE update7 hours ago
Origin
Flag of CISKVR (CIS)
ManufacturerYuzhnoe
MissionSpacecraft
Bus & Motor11S772, Unknown motor
Mass~9,001 kg wet, 9,000 kg dry
Launch date (UTC)
2001-12-10 (23 years ago)
Launch vehicleUnknown
Launch site
Tyuratam Missile And Space Complex (TTMTR)
Object type
Payload
Rocket body
Debris
Shape & HBRCyl, 10.4 m
Radar Cross Section37.829 m², Large (>1 m²)

Expand to show TLE details & history

TLE from 7 hours ago
0 SL-16 R/B
1 27006U 01056F   24361.40402417  .00000021  00000-0  75000-4 0  9994
2 27006  99.7100 150.3310 0014956  36.0284  28.5794 13.71058964153215
Epoch: 2024-12-26T09:41Z
Definitive object data (Epoch: 2024-12-26T09:41:47.688Z)
Latitude63.09735°
Longitude-110.10417°
Altitude996.855 km
Speed7.364 km/s
True Right ascension08h 42m 54s
True Declination62° 57' 46"
Sunlit
Object was in full shadow at TLE epoch
Visualization TLE readout
Latitude74.01751°
Longitude126.26621°
Altitude1,004.175 km
Speed7.358 km/s
Apparent Right ascension03h 12m 11s
Apparent Declination25° 39' 43"
Sunlit
Object is in daylight
Visualization observer readout
Local Sidereal Time16:15:29
Azimuth15.461° NNE
Elevation-22.784°
Doppler factor1
Orbital elements
Apogee altitude1,004.07 km
Perigee altitude982.021 km
Semi-major axis7,371.182 km
Eccentricity0.0014956
Inclination99.71°
RAAN150.331°
Arg. of periapsis36.0284°
True anomaly28.66152°
Mean anomaly28.5794°
Eccentric anomaly28.62045°
Mean motion3.42955 °/min
BSTAR0.000075
Orbital period104.97 mins
Loading maneuver chart data...
Loading historical data...
Loading historical data...
Loading historical data...
Loading historical data...
Loading historical data...
Loading historical data...
Loading historical data...

SL-16 R/B Visibility forecast

Observer location: undefined°, undefined

Span
Click to sort rows by Start time (UTC) header in descending order
Start Az.
Max El. time (UTC)
Max El. Az.
Max El.
End time (UTC)
End Az.
11 mins2024-12-26 22:14:14.446Z33.57° NE2024-12-26 22:20:14.446Z106.833° ESE29.113°2024-12-26 22:25:14.446Z160.993° S
9 mins2024-12-26 23:59:14.446Z350.817° N2024-12-27 00:03:14.446Z294.918° NW31.295°2024-12-27 00:08:14.446Z231.868° WSW
4 mins2024-12-27 08:22:14.446Z67.745° E2024-12-27 08:23:14.446Z56.937° ENE14.014°2024-12-27 08:26:14.446Z26.855° NE
10 mins2024-12-27 10:01:14.446Z162.333° S2024-12-27 10:06:14.446Z1.133° NNE44.766°2024-12-27 10:11:14.446Z345.8° N
|